Simultaneous Nadir Overpasses (SNOs) Predictions

Prediction of SNOs between GOES-17 and NOAA-20 Satellite Orbit:

Table of predicted SNOs for the next 14.0 days since TLE Epoch: 12/17/2022
Index Date Time (GOES-17) GOES-17 Lat,Lon NOAA-20 Lat,Lon Distance(km) Time Diff (sec)
1 12/17/2022 10:45:42 0.02,-137.33 0.56,-139.79 279.59 80
2 12/18/2022 10:24:18 0.02,-137.33 -0.48,-135.26 236.45 80
3 12/19/2022 22:46:15 -0.02,-137.32 -0.77,-140.56 369.25 80
4 12/20/2022 22:30:11 -0.02,-137.32 0.27,-136.04 146.17 80
5 12/22/2022 10:52:00 0.02,-137.30 0.89,-141.31 456.17 80
6 12/23/2022 10:30:36 0.02,-137.29 -0.09,-136.78 58.52 80
7 12/25/2022 22:36:29 -0.01,-137.25 -0.10,-137.55 35.00 80
8 12/26/2022 22:17:45 -0.00,-137.23 0.95,-133.03 479.23 80
9 12/28/2022 10:39:34 0.00,-137.21 0.26,-138.29 124.26 80
10 12/29/2022 10:18:10 -0.01,-137.19 -0.78,-133.77 389.88 80
11 12/30/2022 22:42:46 0.00,-137.16 -0.44,-139.07 218.20 80
